Location: Tucson
(32.2217°N, 110.9265°W)
Time: 06:54:46
(UTC-07:00)

Tiros 1 - Pass Details

Date: 25 October 2021
Orbit: 629 x 664 km, 48.4° (Epoch: 26 November)

Event Time Altitude Azimuth Distance (km) Brightness Sun altitude
Rises 08:49:38 0° 224° (SW) 2,979 10.5 25.0°
Reaches altitude 10° 08:51:59 10° 222° (SW) 2,068 9.8 25.4°
Maximum altitude 08:56:45 75° 138° (SE) 684 8.0 26.2°
Drops below altitude 10° 09:01:31 10° 54° (NE) 2,064 10.0 27.0°
Sets 09:03:51 0° 52° (NE) 2,973 10.7 27.4°
